Location: Gandikunta
(16.3784°N, 80.8378°E)
Time: 20:52:40
(UTC+00:00)

CZ-4 R/B - Visible Passes

Search period start: 14 April 2026 00:00
Search period end: 24 April 2026 00:00
Orbit: 491 x 538 km, 97.6° (Epoch: 14 April)

Date Brightness Start Highest point End Pass type
(mag) Time Alt. Az. Time Alt. Az. Time Alt. Az.
14 Apr 4.1 15:03:34 12° NNW 15:03:34 12° NNW 15:03:53 10° NNW visible
15 Apr 3.8 14:48:01 14° N 14:48:01 14° N 14:48:33 10° N visible
16 Apr 3.6 14:32:27 13° NNE 14:32:27 13° NNE 14:32:59 10° N visible
17 Apr 3.7 14:16:54 11° NNE 14:16:54 11° NNE 14:17:07 10° NNE visible
19 Apr 4.4 15:20:44 11° NNW 15:20:44 11° NNW 15:20:53 10° NNW visible
20 Apr 3.9 15:05:10 14° NNW 15:05:10 14° NNW 15:05:47 10° NNW visible
21 Apr 3.6 14:49:35 16° N 14:49:35 16° N 14:50:26 10° N visible
22 Apr 3.4 14:34:01 16° NNE 14:34:01 16° NNE 14:34:52 10° N visible
23 Apr 3.5 14:18:26 13° NNE 14:18:26 13° NNE 14:19:00 10° NNE visible
